This is the latest recevied weather packets stored in our database for station/object N8ESC. If no packets are shown the sender has not sent any weather packets the latest 10 day(s).
| Time | Temp. | Humidity | Pressure | Rain* | Wind** | Luminosity | Snow |
|---|---|---|---|---|---|---|---|
| 1777934042 | 13.89° C | 62% | 992.3 hPa | 0 mm | - | 67 W/m² | - |
| 1777933739 | 13.89° C | 63% | 992.3 hPa | 0 mm | - | 38 W/m² | - |
| 1777933435 | 13.89° C | 63% | 992.2 hPa | 0 mm | - | 36 W/m² | - |
| 1777933134 | 13.89° C | 63% | 991.9 hPa | 0 mm | - | 36 W/m² | - |
| 1777932830 | 13.89° C | 63% | 991.8 hPa | 0 mm | - | 35 W/m² | - |
| 1777932527 | 13.89° C | 63% | 991.8 hPa | 0 mm | - | 34 W/m² | - |
| 1777932224 | 14.44° C | 61% | 991.4 hPa | 0 mm | - | 39 W/m² | - |
| 1777931922 | 15° C | 59% | 991.8 hPa | 0 mm | - | 40 W/m² | - |
| 1777931617 | 15° C | 58% | 991.3 hPa | 0 mm | - | 41 W/m² | - |
| 1777931314 | 15° C | 59% | 990.8 hPa | 0 mm | - | 57 W/m² | - |
| 1777931011 | 15° C | 58% | 991.2 hPa | 0 mm | - | 104 W/m² | - |
| 1777930707 | 15° C | 57% | 991.1 hPa | 0 mm | - | 78 W/m² | - |
| 1777930403 | 15.56° C | 58% | 991.4 hPa | 0 mm | - | 71 W/m² | - |
| 1777930101 | 15.56° C | 57% | 991.1 hPa | 0 mm | - | 92 W/m² | - |
| 1777929797 | 15° C | 57% | 991.2 hPa | 0 mm | - | 91 W/m² | - |
| 1777929495 | 15.56° C | 58% | 991 hPa | 0 mm | - | 107 W/m² | - |
| 1777929190 | 15.56° C | 57% | 991 hPa | 0 mm | - | 143 W/m² | - |
| 1777928888 | 15.56° C | 58% | 990.8 hPa | 0 mm | - | 145 W/m² | - |
| 1777928586 | 15.56° C | 58% | 990.7 hPa | 0 mm | - | 149 W/m² | - |
| 1777928282 | 15.56° C | 59% | 990.6 hPa | 0 mm | - | 172 W/m² | - |
| 1777927980 | 15.56° C | 59% | 990.6 hPa | 0 mm | - | 133 W/m² | - |
| 1777927678 | 15.56° C | 58% | 990.5 hPa | 0 mm | - | 145 W/m² | - |
| 1777927376 | 15.56° C | 58% | 990.5 hPa | 0 mm | - | 160 W/m² | - |
| 1777927075 | 15.56° C | 57% | 990.4 hPa | 0 mm | - | 141 W/m² | - |
| 1777926772 | 16.11° C | 56% | 990.5 hPa | 0 mm | - | 136 W/m² | - |
* Rain latest hour (hover to see other rain measurements)
** Current wind speed in m/s (hover to see current wind gust speed)